Total_Precipitation_Accumulation
0.29 0.30 0.31 0.32 0.31 0.29 0.26 0.23 0.21 0.20 0.20 0.20 0.21 0.21 0.22 0.22 0.22 0.22 0.21 0.20 0.19 0.19 0.19 0.19 0.19 0.20 0.20 0.21 0.21 0.22 0.22 0.22 0.22 0.22 0.24 0.27 0.28 0.28 0.27 0.28 0.31 0.31 0.29 0.31 0.35 0.45 0.52 0.53 0.48 0.44 0.41 0.52 0.61 0.62 0.57 0.50 0.44 0.52 0.52 0.60 0.68 0.64 0.63 0.76 0.78 0.57 0.27 0.12 0.12 0.14 0.13 0.15 0.26 0.31 0.41 0.43 0.39 0.31 0.29 0.28 0.33 0.36 0.35 0.36 0.37
0.23 0.22 0.23 0.24 0.27 0.29 0.29 0.28 0.26 0.23 0.22 0.20 0.19 0.18 0.17 0.17 0.17 0.18 0.20 0.20 0.22 0.25 0.25 0.35 0.24 0.24 0.24 0.23 0.22 0.21 0.21 0.21 0.21 0.21 0.22 0.22 0.23 0.25 0.28 0.30 0.32 0.31 0.28 0.30 0.28 0.29 0.35 0.45 0.43 0.41 0.40 0.48 0.53 0.54 0.55 0.59 0.59 0.58 0.52 0.51 0.59 0.60 0.52 0.65 0.76 0.63 0.48 0.20 0.12 0.09 0.10 0.11 0.22 0.23 0.33 0.37 0.43 0.37 0.34 0.33 0.27 0.29 0.32 0.33 0.36
0.23 0.21 0.21 0.22 0.23 0.24 0.26 0.28 0.28 0.28 0.28 0.27 0.25 0.24 0.22 0.20 0.18 0.20 0.19 0.20 0.20 0.22 0.25 0.28 0.28 0.30 0.31 0.32 0.30 0.29 0.27 0.26 0.25 0.25 0.26 0.26 0.26 0.26 0.24 0.26 0.29 0.31 0.30 0.29 0.26 0.30 0.30 0.34 0.36 0.35 0.36 0.45 0.48 0.49 0.49 0.51 0.56 0.64 0.61 0.51 0.48 0.44 0.42 0.47 0.62 0.66 0.50 0.34 0.16 0.11 0.09 0.10 0.14 0.23 0.25 0.30 0.34 0.36 0.41 0.39 0.38 0.34 0.34 0.28 0.30
0.24 0.24 0.26 0.24 0.23 0.24 0.25 0.26 0.27 0.26 0.27 0.30 0.26 0.28 0.25 0.26 0.25 0.28 0.28 0.28 0.29 0.26 0.26 0.25 0.24 0.23 0.23 0.22 0.22 0.22 0.21 0.21 0.21 0.21 0.22 0.22 0.22 0.22 0.22 0.23 0.27 0.30 0.32 0.30 0.30 0.30 0.32 0.35 0.33 0.28 0.33 0.42 0.44 0.42 0.42 0.45 0.50 0.55 0.58 0.52 0.46 0.44 0.39 0.41 0.53 0.66 0.57 0.47 0.27 0.17 0.12 0.10 0.11 0.10 0.14 0.22 0.32 0.43 0.49 0.47 0.41 0.41 0.34 0.30 0.31
0.31 0.31 0.29 0.30 0.29 0.30 0.29 0.27 0.26 0.26 0.29 0.27 0.28 0.29 0.28 0.28 0.29 0.30 0.29 0.28 0.27 0.26 0.26 0.26 0.26 0.26 0.26 0.25 0.24 0.23 0.23 0.23 0.23 0.23 0.22 0.21 0.22 0.23 0.24 0.24 0.24 0.25 0.26 0.27 0.29 0.31 0.33 0.34 0.34 0.35 0.34 0.38 0.41 0.45 0.42 0.46 0.52 0.51 0.53 0.52 0.50 0.43 0.40 0.39 0.46 0.48 0.59 0.58 0.43 0.23 0.13 0.10 0.09 0.09 0.11 0.18 0.26 0.37 0.49 0.53 0.55 0.50 0.42 0.34 0.30
0.31 0.33 0.33 0.33 0.35 0.33 0.34 0.33 0.32 0.30 0.28 0.28 0.27 0.25 0.24 0.25 0.25 0.25 0.25 0.28 0.28 0.29 0.29 0.28 0.27 0.27 0.26 0.25 0.24 0.23 0.22 0.22 0.22 0.22 0.22 0.21 0.21 0.22 0.23 0.25 0.26 0.26 0.26 0.25 0.25 0.27 0.32 0.34 0.32 0.31 0.36 0.41 0.40 0.36 0.38 0.44 0.54 0.60 0.60 0.57 0.54 0.52 0.52 0.51 0.43 0.45 0.52 0.49 0.40 0.34 0.20 0.17 0.13 0.12 0.13 0.15 0.22 0.30 0.41 0.47 0.51 0.53 0.55 0.51 0.41
0.25 0.27 0.29 0.32 0.33 0.34 0.34 0.34 0.34 0.33 0.33 0.33 0.32 0.31 0.30 0.30 0.28 0.28 0.27 0.28 0.28 0.27 0.26 0.26 0.24 0.25 0.23 0.23 0.23 0.23 0.22 0.22 0.23 0.23 0.23 0.23 0.24 0.25 0.25 0.26 0.27 0.28 0.28 0.28 0.27 0.26 0.26 0.28 0.30 0.31 0.34 0.36 0.39 0.37 0.38 0.42 0.49 0.51 0.59 0.57 0.58 0.63 0.72 0.72 0.66 0.60 0.57 0.51 0.42 0.35 0.26 0.17 0.15 0.16 0.12 0.11 0.16 0.24 0.34 0.41 0.48 0.50 0.48 0.52 0.52
0.23 0.24 0.25 0.26 0.26 0.27 0.27 0.28 0.29 0.31 0.32 0.32 0.33 0.34 0.34 0.35 0.36 0.34 0.33 0.33 0.32 0.30 0.30 0.29 0.27 0.27 0.27 0.26 0.25 0.24 0.25 0.27 0.27 0.28 0.27 0.27 0.29 0.30 0.31 0.32 0.31 0.30 0.28 0.25 0.24 0.26 0.27 0.26 0.26 0.27 0.30 0.32 0.34 0.34 0.37 0.43 0.49 0.59 0.51 0.73 0.64 0.77 0.84 0.79 0.77 0.77 0.70 0.60 0.53 0.44 0.31 0.24 0.17 0.13 0.11 0.15 0.21 0.25 0.26 0.36 0.46 0.43 0.44 0.43 0.45
0.20 0.19 0.19 0.20 0.22 0.23 0.24 0.26 0.27 0.28 0.28 0.29 0.31 0.32 0.33 0.34 0.35 0.36 0.36 0.33 0.32 0.32 0.31 0.32 0.32 0.32 0.31 0.30 0.30 0.29 0.31 0.31 0.31 0.40 0.44 0.41 0.43 0.44 0.42 0.42 0.40 0.37 0.32 0.29 0.27 0.29 0.30 0.30 0.30 0.28 0.27 0.27 0.28 0.32 0.35 0.38 0.50 0.57 0.55 0.57 0.65 0.73 0.75 0.79 0.82 0.84 0.82 0.71 0.63 0.42 0.36 0.32 0.23 0.20 0.21 0.20 0.20 0.24 0.22 0.21 0.27 0.29 0.34 0.37 0.41
0.13 0.14 0.15 0.16 0.17 0.20 0.24 0.25 0.27 0.25 0.32 0.30 0.31 0.32 0.34 0.34 0.38 0.36 0.32 0.32 0.32 0.33 0.34 0.36 0.38 0.36 0.35 0.34 0.35 0.38 0.41 0.44 0.42 0.40 0.51 0.59 0.67 0.69 0.67 0.61 0.55 0.50 0.46 0.41 0.37 0.34 0.34 0.34 0.32 0.29 0.29 0.30 0.32 0.36 0.41 0.46 0.51 0.61 0.63 0.65 0.72 0.76 0.80 0.82 0.83 0.79 0.82 0.84 0.74 0.53 0.51 0.40 0.26 0.18 0.17 0.14 0.10 0.08 0.10 0.15 0.22 0.22 0.25 0.35 0.40
0.10 0.11 0.12 0.14 0.16 0.18 0.20 0.21 0.26 0.23 0.27 0.27 0.29 0.30 0.31 0.32 0.32 0.32 0.31 0.32 0.34 0.31 0.31 0.31 0.31 0.30 0.31 0.32 0.32 0.32 0.35 0.34 0.40 0.56 0.74 0.95 1.00 0.99 0.85 0.72 0.59 0.56 0.55 0.56 0.53 0.42 0.37 0.34 0.34 0.35 0.36 0.39 0.41 0.43 0.45 0.51 0.55 0.60 0.61 0.61 0.72 0.85 0.93 0.86 0.75 0.65 0.68 0.72 0.60 0.55 0.45 0.38 0.23 0.14 0.13 0.12 0.10 0.12 0.14 0.14 0.16 0.20 0.30 0.43 0.55
0.11 0.12 0.12 0.13 0.14 0.15 0.16 0.18 0.21 0.23 0.24 0.27 0.27 0.27 0.27 0.29 0.29 0.27 0.27 0.26 0.26 0.26 0.26 0.25 0.25 0.35 0.28 0.28 0.29 0.31 0.29 0.33 0.55 0.74 0.94 1.29 1.33 1.21 1.19 1.00 0.84 0.74 0.67 0.63 0.57 0.53 0.49 0.45 0.41 0.37 0.37 0.37 0.37 0.40 0.41 0.45 0.50 0.54 0.62 0.67 0.71 0.76 0.86 0.91 0.92 0.80 0.68 0.68 0.66 0.57 0.49 0.37 0.26 0.18 0.16 0.16 0.18 0.17 0.16 0.19 0.22 0.27 0.33 0.38 0.40
0.11 0.12 0.12 0.13 0.14 0.16 0.17 0.19 0.21 0.22 0.23 0.24 0.25 0.26 0.29 0.30 0.30 0.31 0.29 0.28 0.27 0.28 0.25 0.26 0.27 0.27 0.29 0.31 0.30 0.29 0.45 0.35 0.57 0.83 1.03 1.40 1.61 1.63 1.51 1.39 1.08 0.94 0.80 0.71 0.65 0.58 0.54 0.52 0.49 0.45 0.41 0.39 0.43 0.44 0.46 0.48 0.47 0.51 0.57 0.60 0.72 0.95 1.00 1.06 1.03 0.91 0.96 0.94 0.87 0.73 0.60 0.43 0.41 0.31 0.23 0.27 0.33 0.38 0.31 0.34 0.30 0.30 0.30 0.33 0.31
0.12 0.13 0.13 0.15 0.15 0.18 0.20 0.21 0.23 0.24 0.25 0.26 0.28 0.30 0.33 0.32 0.31 0.33 0.32 0.31 0.29 0.26 0.25 0.27 0.28 0.30 0.34 0.39 0.41 0.38 0.39 0.42 0.63 0.87 1.13 1.45 1.60 2.09 1.60 1.44 1.17 0.90 0.75 0.67 0.63 0.59 0.58 0.58 0.56 0.51 0.46 0.47 0.50 0.48 0.46 0.47 0.48 0.51 0.57 0.62 0.65 0.63 0.77 0.87 0.88 0.92 0.98 1.05 1.09 0.98 0.65 0.55 0.48 0.37 0.34 0.41 0.53 0.55 0.54 0.49 0.38 0.34 0.34 0.33 0.26
0.12 0.13 0.14 0.16 0.17 0.19 0.22 0.22 0.24 0.23 0.24 0.24 0.26 0.27 0.31 0.32 0.33 0.35 0.34 0.35 0.35 0.34 0.33 0.34 0.34 0.36 0.36 0.39 0.46 0.46 0.43 0.52 0.78 1.07 1.29 1.61 1.73 1.93 1.57 1.34 1.08 0.87 0.72 0.64 0.61 0.59 0.56 0.53 0.51 0.48 0.47 0.50 0.52 0.52 0.57 0.57 0.59 0.61 0.61 0.55 0.50 0.46 0.43 0.58 0.57 0.70 0.80 0.79 0.77 0.69 0.55 0.50 0.49 0.52 0.67 0.61 0.75 0.75 0.67 0.54 0.48 0.38 0.36 0.34 0.35
0.14 0.14 0.17 0.17 0.19 0.20 0.21 0.24 0.24 0.25 0.26 0.27 0.29 0.30 0.31 0.31 0.34 0.31 0.34 0.35 0.34 0.36 0.35 0.37 0.36 0.34 0.32 0.35 0.41 0.45 0.42 0.51 0.77 1.11 1.46 1.73 1.87 1.62 1.45 1.28 0.97 0.82 0.73 0.75 0.67 0.66 0.63 0.65 0.62 0.59 0.52 0.50 0.49 0.62 0.61 0.66 0.73 0.72 0.67 0.57 0.51 0.46 0.43 0.35 0.46 0.71 0.60 0.80 0.72 0.69 0.68 0.65 0.94 0.82 0.89 0.87 0.95 0.82 0.64 0.59 0.58 0.65 0.70 0.74 0.68
0.16 0.18 0.19 0.20 0.23 0.24 0.26 0.27 0.29 0.29 0.29 0.30 0.29 0.29 0.31 0.33 0.35 0.36 0.40 0.38 0.39 0.38 0.38 0.37 0.35 0.33 0.33 0.35 0.38 0.35 0.37 0.45 0.62 0.94 1.29 1.47 1.64 1.49 1.39 1.20 0.94 0.76 0.67 0.59 0.60 0.60 0.63 0.63 0.66 0.60 0.55 0.51 0.50 0.67 0.86 0.91 0.94 0.83 0.75 0.67 0.58 0.53 0.50 0.39 0.60 0.99 1.35 1.68 1.85 1.93 1.83 1.84 1.82 2.04 2.02 1.89 1.27 1.28 1.40 1.46 1.19 0.81 0.85 0.92 0.74
0.20 0.22 0.23 0.25 0.28 0.30 0.32 0.33 0.33 0.32 0.30 0.31 0.32 0.33 0.35 0.37 0.37 0.36 0.40 0.39 0.37 0.31 0.31 0.30 0.29 0.31 0.32 0.33 0.36 0.38 0.35 0.38 0.52 0.82 1.10 1.32 1.58 1.60 1.48 1.19 0.95 0.80 0.70 0.61 0.59 0.58 0.53 0.54 0.58 0.60 0.60 0.55 0.59 0.71 1.15 1.14 1.17 0.98 0.85 0.79 0.72 0.68 0.57 0.46 0.46 0.49 0.79 1.19 1.57 1.82 1.91 1.78 1.65 1.67 1.87 1.85 2.05 1.67 1.76 1.87 1.13 0.70 0.76 0.71 0.66
0.25 0.29 0.32 0.32 0.34 0.34 0.32 0.32 0.33 0.33 0.34 0.33 0.36 0.40 0.39 0.36 0.33 0.33 0.34 0.33 0.31 0.30 0.31 0.31 0.28 0.28 0.31 0.35 0.37 0.42 0.45 0.45 0.51 0.67 0.93 1.25 1.34 1.33 1.19 1.07 0.95 0.75 0.68 0.65 0.58 0.60 0.55 0.54 0.58 0.61 0.58 0.54 0.77 1.05 1.39 1.37 1.36 1.06 0.84 0.82 0.77 0.66 0.48 0.42 0.47 0.54 0.61 0.60 0.62 0.67 0.81 1.01 1.10 1.04 0.93 1.01 1.12 1.40 1.28 1.50 1.19 1.00 1.01 0.75 0.59
0.29 0.33 0.35 0.37 0.34 0.32 0.33 0.35 0.35 0.36 0.37 0.36 0.37 0.39 0.36 0.35 0.33 0.35 0.33 0.32 0.32 0.31 0.31 0.32 0.34 0.32 0.31 0.35 0.38 0.44 0.50 0.46 0.49 0.56 0.86 1.14 1.47 1.33 1.23 1.16 1.05 0.86 0.79 0.75 0.74 0.62 0.55 0.56 0.57 0.64 0.71 0.84 0.96 1.35 1.61 2.34 1.81 1.36 1.04 0.99 0.93 0.75 0.51 0.47 0.46 0.49 0.53 0.50 0.45 0.45 0.48 0.52 0.59 0.61 0.63 0.62 0.65 0.79 0.99 0.77 0.79 0.96 0.98 0.82 0.65
0.36 0.36 0.35 0.33 0.32 0.32 0.35 0.37 0.40 0.38 0.38 0.41 0.40 0.35 0.32 0.34 0.33 0.33 0.33 0.33 0.35 0.36 0.33 0.32 0.34 0.33 0.33 0.34 0.38 0.43 0.50 0.58 0.57 0.61 0.73 0.90 1.21 1.44 1.20 1.04 0.90 0.87 0.90 0.88 0.77 0.68 0.56 0.51 0.49 0.47 0.50 0.62 0.90 1.28 1.69 2.05 1.77 1.50 1.59 1.34 0.96 0.72 0.73 0.73 0.68 0.66 0.60 0.57 0.50 0.50 0.48 0.50 0.52 0.53 0.54 0.51 0.54 0.61 0.62 0.69 0.66 0.56 0.58 0.69 0.73
0.35 0.36 0.36 0.35 0.35 0.36 0.37 0.38 0.39 0.40 0.38 0.37 0.38 0.34 0.31 0.32 0.34 0.35 0.37 0.41 0.41 0.37 0.34 0.36 0.39 0.37 0.35 0.40 0.45 0.51 0.47 0.47 0.45 0.41 0.44 0.66 0.95 1.38 1.20 1.01 0.85 0.99 1.06 0.91 0.74 0.62 0.52 0.46 0.44 0.44 0.49 0.61 0.76 1.29 1.95 2.00 1.90 1.57 1.37 1.92 2.03 1.90 1.21 1.00 0.91 0.85 0.77 0.71 0.65 0.63 0.60 0.58 0.60 0.57 0.51 0.47 0.42 0.41 0.49 0.54 0.60 0.59 0.50 0.47 0.49
0.37 0.37 0.37 0.36 0.35 0.37 0.37 0.38 0.38 0.37 0.37 0.37 0.40 0.37 0.32 0.33 0.35 0.39 0.45 0.49 0.47 0.46 0.44 0.45 0.46 0.43 0.39 0.38 0.39 0.42 0.42 0.43 0.42 0.38 0.38 0.51 0.74 1.09 1.22 1.21 1.27 1.12 1.18 1.08 0.82 0.63 0.53 0.49 0.45 0.45 0.59 0.78 1.21 1.68 1.96 2.01 1.52 1.40 2.08 2.02 1.76 1.58 1.50 1.35 1.36 1.33 1.22 1.04 0.85 0.77 0.66 0.57 0.55 0.52 0.47 0.45 0.42 0.39 0.42 0.45 0.47 0.51 0.59 0.60 0.47
0.37 0.38 0.35 0.33 0.33 0.32 0.33 0.34 0.35 0.37 0.41 0.41 0.40 0.39 0.38 0.38 0.40 0.42 0.44 0.50 0.52 0.49 0.41 0.43 0.44 0.42 0.40 0.39 0.41 0.43 0.42 0.41 0.40 0.39 0.40 0.41 0.58 1.00 1.25 1.25 1.37 1.16 1.00 0.85 0.68 0.59 0.55 0.49 0.48 0.56 0.93 1.30 1.81 2.04 1.94 1.72 1.41 1.53 1.80 1.56 1.55 1.58 1.42 1.30 1.22 1.21 1.16 1.06 0.98 0.86 0.75 0.62 0.53 0.51 0.46 0.39 0.38 0.37 0.37 0.40 0.44 0.46 0.66 0.55 0.45
0.37 0.35 0.32 0.30 0.30 0.31 0.33 0.35 0.36 0.38 0.40 0.42 0.44 0.44 0.41 0.40 0.44 0.42 0.47 0.52 0.53 0.50 0.42 0.44 0.47 0.44 0.44 0.48 0.50 0.47 0.44 0.42 0.41 0.40 0.40 0.40 0.49 0.76 0.93 0.99 0.89 0.80 0.79 0.65 0.60 0.59 0.60 0.79 0.97 1.29 1.32 1.44 1.50 1.48 1.39 1.25 1.33 1.18 1.21 1.15 1.12 1.01 1.18 1.21 1.03 0.85 0.88 0.90 0.80 0.67 0.59 0.56 0.49 0.44 0.43 0.43 0.46 0.45 0.50 0.53 0.56 0.55 0.55 0.59 0.50
0.35 0.32 0.29 0.28 0.30 0.32 0.35 0.34 0.35 0.37 0.37 0.37 0.39 0.40 0.42 0.43 0.48 0.45 0.50 0.53 0.49 0.52 0.52 0.50 0.49 0.49 0.53 0.54 0.57 0.53 0.48 0.46 0.42 0.40 0.41 0.41 0.44 0.58 0.77 0.61 0.58 0.57 0.59 0.55 0.48 0.48 0.74 1.02 1.02 0.82 0.82 0.81 0.84 0.82 0.91 0.61 0.60 0.71 0.81 0.88 0.96 0.91 0.88 0.91 0.91 0.79 0.70 0.56 0.51 0.52 0.51 0.51 0.54 0.49 0.46 0.44 0.45 0.46 0.42 0.43 0.45 0.54 0.47 0.44 0.46
0.32 0.30 0.28 0.30 0.32 0.35 0.38 0.39 0.40 0.38 0.38 0.38 0.39 0.40 0.41 0.44 0.46 0.49 0.52 0.54 0.52 0.54 0.55 0.56 0.58 0.59 0.63 0.55 0.52 0.49 0.46 0.43 0.41 0.39 0.39 0.46 0.48 0.49 0.59 0.58 0.54 0.53 0.50 0.53 0.52 0.52 0.52 0.60 0.61 0.64 0.66 0.69 0.73 0.75 0.61 0.50 0.54 0.66 0.66 0.70 0.77 0.86 0.80 0.70 0.65 0.66 0.62 0.52 0.47 0.44 0.44 0.47 0.54 0.61 0.64 0.54 0.51 0.46 0.39 0.36 0.38 0.40 0.40 0.42 0.42
0.33 0.31 0.30 0.32 0.36 0.38 0.40 0.40 0.41 0.40 0.38 0.40 0.42 0.39 0.39 0.39 0.45 0.48 0.55 0.64 0.74 0.71 0.69 0.69 0.73 0.81 0.84 0.66 0.56 0.46 0.46 0.48 0.44 0.48 0.51 0.55 0.59 0.65 0.68 0.63 0.56 0.48 0.49 0.50 0.51 0.49 0.50 0.56 0.65 0.75 0.84 0.88 0.80 0.74 0.68 0.71 0.65 0.54 0.46 0.50 0.61 0.65 0.72 0.78 0.80 0.59 0.56 0.48 0.47 0.48 0.51 0.53 0.62 0.61 0.64 0.62 0.50 0.42 0.39 0.42 0.35 0.38 0.36 0.37 0.50
0.35 0.34 0.33 0.36 0.37 0.37 0.39 0.39 0.38 0.38 0.38 0.37 0.41 0.44 0.45 0.47 0.50 0.47 0.41 0.53 0.74 1.06 1.28 1.16 1.06 1.10 0.95 0.87 0.78 0.64 0.55 0.55 0.53 0.54 0.58 0.70 0.84 0.93 0.89 0.76 0.65 0.60 0.55 0.55 0.55 0.56 0.58 0.60 0.59 0.54 0.50 0.50 0.59 0.64 0.59 0.54 0.50 0.46 0.45 0.47 0.52 0.65 0.76 0.79 0.83 0.79 0.68 0.60 0.57 0.59 0.58 0.57 0.55 0.52 0.50 0.58 0.55 0.53 0.42 0.41 0.36 0.34 0.37 0.34 0.37
0.38 0.34 0.33 0.35 0.34 0.37 0.40 0.38 0.36 0.37 0.38 0.36 0.34 0.36 0.40 0.47 0.51 0.61 0.56 0.46 0.55 0.74 1.19 1.34 1.35 1.31 1.28 1.00 0.86 0.94 0.93 0.73 0.73 0.91 1.01 1.20 1.11 1.07 1.02 1.02 0.88 0.78 0.67 0.57 0.63 0.62 0.60 0.59 0.55 0.54 0.53 0.51 0.52 0.57 0.57 0.56 0.56 0.55 0.52 0.51 0.50 0.52 0.60 0.75 0.70 0.62 0.60 0.63 0.61 0.60 0.56 0.54 0.55 0.54 0.51 0.49 0.43 0.44 0.48 0.47 0.46 0.39 0.43 0.47 0.45
0.48 0.41 0.39 0.38 0.37 0.41 0.39 0.35 0.33 0.35 0.35 0.33 0.32 0.34 0.33 0.33 0.42 0.49 0.50 0.51 0.51 0.69 0.90 1.16 1.28 1.27 1.49 1.40 0.92 0.76 0.73 0.65 0.76 0.82 1.00 1.24 1.45 1.05 1.10 1.07 0.95 0.96 0.89 0.87 0.88 0.77 0.69 0.62 0.58 0.55 0.52 0.52 0.52 0.55 0.56 0.52 0.51 0.54 0.56 0.53 0.52 0.52 0.51 0.54 0.68 0.70 0.73 0.77 0.73 0.66 0.63 0.58 0.55 0.53 0.53 0.46 0.45 0.43 0.43 0.47 0.48 0.53 0.51 0.44 0.43
0.54 0.45 0.41 0.39 0.37 0.36 0.35 0.35 0.34 0.34 0.32 0.31 0.32 0.33 0.31 0.28 0.26 0.32 0.45 0.49 0.51 0.62 0.72 0.86 1.06 1.23 1.21 1.21 1.13 0.93 0.78 0.76 0.71 0.90 1.04 1.37 0.99 0.87 0.94 0.94 1.07 1.08 0.89 0.75 0.72 0.72 0.64 0.62 0.60 0.57 0.56 0.55 0.55 0.55 0.53 0.49 0.49 0.50 0.55 0.61 0.60 0.56 0.53 0.53 0.55 0.59 0.62 0.66 0.74 0.76 0.74 0.72 0.64 0.57 0.55 0.51 0.48 0.48 0.47 0.53 0.57 0.53 0.55 0.53 0.46
0.51 0.46 0.42 0.40 0.37 0.34 0.34 0.34 0.34 0.34 0.34 0.34 0.32 0.31 0.32 0.31 0.32 0.26 0.27 0.33 0.43 0.50 0.50 0.56 0.68 0.77 0.85 0.98 1.09 1.11 0.94 0.86 0.85 1.11 1.16 0.95 0.73 0.69 0.83 1.02 1.02 0.85 0.87 0.72 0.57 0.53 0.51 0.50 0.55 0.56 0.56 0.56 0.55 0.53 0.53 0.52 0.51 0.50 0.51 0.53 0.56 0.57 0.55 0.52 0.52 0.53 0.58 0.67 0.73 0.68 0.68 0.77 0.73 0.67 0.59 0.55 0.56 0.59 0.55 0.50 0.47 0.48 0.49 0.52 0.51
0.45 0.47 0.44 0.40 0.39 0.35 0.33 0.33 0.34 0.32 0.32 0.34 0.33 0.32 0.30 0.32 0.34 0.33 0.33 0.25 0.27 0.33 0.39 0.40 0.43 0.45 0.46 0.55 0.67 0.68 0.72 0.80 0.76 0.68 0.78 0.79 0.96 0.96 0.86 0.76 0.63 0.55 0.58 0.59 0.53 0.47 0.43 0.43 0.44 0.46 0.46 0.46 0.46 0.46 0.45 0.46 0.45 0.45 0.46 0.47 0.48 0.48 0.50 0.51 0.49 0.51 0.54 0.58 0.65 0.63 0.63 0.65 0.68 0.75 0.79 0.73 0.62 0.55 0.55 0.53 0.49 0.52 0.56 0.56 0.52
0.39 0.36 0.33 0.33 0.35 0.34 0.33 0.33 0.34 0.34 0.32 0.31 0.31 0.31 0.33 0.30 0.32 0.36 0.39 0.38 0.39 0.37 0.33 0.35 0.32 0.30 0.37 0.41 0.50 0.50 0.51 0.53 0.59 0.65 0.71 0.78 0.83 0.75 0.68 0.59 0.52 0.38 0.35 0.34 0.34 0.35 0.34 0.35 0.36 0.36 0.36 0.36 0.36 0.36 0.37 0.37 0.39 0.39 0.38 0.38 0.37 0.38 0.41 0.44 0.45 0.45 0.46 0.49 0.50 0.52 0.53 0.56 0.59 0.64 0.69 0.75 0.74 0.76 0.67 0.62 0.57 0.59 0.55 0.51 0.48
0.36 0.35 0.30 0.28 0.29 0.31 0.31 0.31 0.32 0.33 0.33 0.31 0.31 0.33 0.32 0.30 0.33 0.33 0.34 0.34 0.40 0.38 0.34 0.32 0.32 0.30 0.29 0.32 0.38 0.41 0.43 0.44 0.54 0.65 0.76 0.81 0.77 0.70 0.61 0.48 0.35 0.28 0.28 0.27 0.27 0.27 0.28 0.29 0.30 0.29 0.30 0.31 0.33 0.34 0.35 0.36 0.36 0.37 0.36 0.35 0.32 0.31 0.33 0.35 0.37 0.38 0.40 0.43 0.45 0.46 0.48 0.53 0.55 0.58 0.63 0.65 0.68 0.67 0.65 0.59 0.56 0.53 0.51 0.50 0.49
0.37 0.33 0.29 0.27 0.28 0.30 0.30 0.29 0.29 0.30 0.31 0.30 0.30 0.29 0.28 0.27 0.29 0.30 0.30 0.30 0.34 0.34 0.34 0.30 0.26 0.23 0.24 0.23 0.31 0.32 0.34 0.39 0.48 0.53 0.61 0.63 0.53 0.41 0.34 0.30 0.29 0.27 0.25 0.26 0.26 0.26 0.25 0.25 0.26 0.26 0.25 0.27 0.29 0.30 0.31 0.32 0.31 0.30 0.29 0.29 0.30 0.30 0.32 0.34 0.36 0.36 0.37 0.37 0.39 0.41 0.43 0.47 0.50 0.51 0.54 0.59 0.61 0.63 0.64 0.64 0.63 0.59 0.58 0.53 0.51
0.33 0.32 0.31 0.30 0.31 0.30 0.29 0.28 0.27 0.26 0.26 0.26 0.26 0.27 0.28 0.27 0.28 0.28 0.29 0.29 0.30 0.32 0.32 0.29 0.28 0.25 0.27 0.26 0.28 0.33 0.32 0.31 0.31 0.34 0.38 0.39 0.36 0.32 0.28 0.28 0.29 0.27 0.24 0.24 0.25 0.25 0.24 0.23 0.23 0.23 0.23 0.23 0.22 0.22 0.22 0.23 0.23 0.23 0.22 0.21 0.23 0.24 0.29 0.30 0.33 0.34 0.34 0.33 0.34 0.37 0.40 0.42 0.46 0.49 0.49 0.49 0.50 0.52 0.55 0.56 0.60 0.64 0.65 0.63 0.62
0.30 0.28 0.27 0.28 0.30 0.30 0.30 0.29 0.26 0.26 0.25 0.25 0.25 0.27 0.28 0.28 0.27 0.27 0.27 0.27 0.25 0.27 0.29 0.29 0.29 0.28 0.29 0.32 0.34 0.33 0.31 0.31 0.33 0.34 0.36 0.35 0.30 0.27 0.27 0.27 0.27 0.24 0.24 0.25 0.24 0.24 0.24 0.23 0.22 0.21 0.21 0.21 0.21 0.21 0.22 0.21 0.20 0.20 0.19 0.19 0.18 0.19 0.20 0.21 0.23 0.27 0.31 0.32 0.32 0.34 0.36 0.37 0.40 0.43 0.46 0.45 0.43 0.43 0.47 0.50 0.51 0.53 0.57 0.58 0.59
0.33 0.29 0.27 0.26 0.28 0.28 0.28 0.28 0.27 0.28 0.27 0.27 0.25 0.26 0.29 0.28 0.28 0.29 0.30 0.28 0.25 0.25 0.28 0.30 0.30 0.30 0.32 0.35 0.39 0.40 0.34 0.31 0.29 0.28 0.28 0.28 0.28 0.29 0.27 0.25 0.24 0.25 0.26 0.26 0.25 0.25 0.25 0.23 0.23 0.22 0.21 0.20 0.20 0.21 0.21 0.21 0.20 0.19 0.18 0.18 0.18 0.18 0.18 0.19 0.20 0.21 0.23 0.26 0.28 0.29 0.31 0.31 0.33 0.36 0.40 0.42 0.41 0.41 0.43 0.43 0.43 0.47 0.47 0.46 0.44
0.35 0.32 0.29 0.27 0.27 0.29 0.27 0.26 0.27 0.28 0.28 0.28 0.28 0.29 0.29 0.29 0.29 0.30 0.30 0.26 0.25 0.25 0.27 0.30 0.31 0.31 0.34 0.39 0.38 0.44 0.41 0.39 0.33 0.31 0.31 0.28 0.26 0.25 0.23 0.24 0.25 0.25 0.25 0.26 0.26 0.26 0.25 0.24 0.22 0.21 0.19 0.19 0.20 0.21 0.20 0.20 0.19 0.19 0.18 0.18 0.17 0.17 0.17 0.17 0.18 0.18 0.20 0.22 0.24 0.25 0.27 0.28 0.29 0.31 0.33 0.34 0.38 0.39 0.38 0.41 0.43 0.44 0.44 0.44 0.42
0.35 0.34 0.31 0.28 0.27 0.28 0.29 0.26 0.27 0.27 0.27 0.27 0.26 0.29 0.31 0.30 0.29 0.30 0.28 0.26 0.25 0.25 0.27 0.27 0.28 0.30 0.32 0.34 0.34 0.38 0.33 0.30 0.29 0.28 0.28 0.28 0.26 0.24 0.25 0.24 0.25 0.26 0.27 0.27 0.28 0.27 0.24 0.23 0.21 0.21 0.20 0.20 0.20 0.19 0.20 0.19 0.19 0.19 0.19 0.18 0.17 0.17 0.17 0.16 0.17 0.18 0.19 0.20 0.20 0.21 0.23 0.26 0.28 0.30 0.30 0.34 0.32 0.33 0.35 0.37 0.38 0.40 0.42 0.43 0.43
0.34 0.33 0.33 0.31 0.30 0.30 0.32 0.29 0.28 0.27 0.24 0.25 0.26 0.27 0.29 0.29 0.30 0.29 0.27 0.26 0.25 0.25 0.26 0.24 0.25 0.26 0.27 0.28 0.28 0.28 0.26 0.26 0.27 0.28 0.28 0.27 0.26 0.25 0.24 0.24 0.24 0.26 0.27 0.26 0.26 0.25 0.24 0.23 0.22 0.21 0.21 0.20 0.20 0.21 0.21 0.20 0.19 0.19 0.19 0.19 0.19 0.18 0.17 0.16 0.17 0.18 0.18 0.18 0.18 0.19 0.20 0.21 0.23 0.24 0.25 0.27 0.28 0.30 0.31 0.31 0.32 0.33 0.35 0.38 0.40
0.33 0.31 0.32 0.33 0.31 0.29 0.29 0.30 0.28 0.27 0.27 0.27 0.26 0.26 0.26 0.27 0.27 0.27 0.26 0.24 0.24 0.24 0.26 0.25 0.25 0.26 0.27 0.27 0.25 0.24 0.24 0.25 0.27 0.27 0.27 0.25 0.24 0.24 0.24 0.24 0.24 0.24 0.23 0.23 0.23 0.22 0.22 0.22 0.22 0.20 0.19 0.18 0.18 0.18 0.18 0.18 0.20 0.21 0.21 0.20 0.19 0.19 0.18 0.18 0.19 0.19 0.20 0.20 0.19 0.19 0.19 0.19 0.19 0.20 0.22 0.23 0.25 0.27 0.26 0.27 0.28 0.28 0.29 0.31 0.34
0.31 0.31 0.33 0.33 0.30 0.30 0.28 0.28 0.29 0.28 0.27 0.26 0.25 0.23 0.24 0.24 0.26 0.26 0.25 0.25 0.24 0.24 0.25 0.25 0.25 0.26 0.27 0.27 0.27 0.26 0.26 0.26 0.27 0.27 0.27 0.25 0.25 0.23 0.23 0.24 0.25 0.24 0.23 0.21 0.21 0.22 0.21 0.22 0.22 0.21 0.18 0.16 0.16 0.16 0.16 0.16 0.18 0.20 0.21 0.22 0.22 0.21 0.19 0.20 0.19 0.20 0.22 0.23 0.21 0.20 0.18 0.19 0.18 0.19 0.20 0.20 0.22 0.24 0.24 0.25 0.25 0.27 0.28 0.28 0.32
0.30 0.30 0.31 0.32 0.31 0.29 0.29 0.28 0.28 0.27 0.27 0.28 0.28 0.27 0.24 0.23 0.26 0.26 0.25 0.25 0.25 0.26 0.26 0.25 0.25 0.26 0.28 0.30 0.30 0.29 0.29 0.28 0.27 0.27 0.27 0.25 0.25 0.23 0.23 0.24 0.24 0.23 0.23 0.22 0.21 0.21 0.21 0.22 0.22 0.21 0.18 0.15 0.14 0.14 0.14 0.15 0.16 0.16 0.17 0.18 0.20 0.20 0.20 0.20 0.20 0.21 0.21 0.21 0.21 0.20 0.19 0.19 0.18 0.18 0.20 0.21 0.22 0.23 0.23 0.22 0.24 0.25 0.27 0.27 0.29
0.29 0.30 0.30 0.31 0.32 0.31 0.31 0.30 0.30 0.30 0.29 0.29 0.30 0.28 0.24 0.24 0.27 0.25 0.25 0.26 0.26 0.26 0.26 0.26 0.25 0.26 0.28 0.31 0.31 0.30 0.30 0.28 0.28 0.27 0.27 0.26 0.25 0.24 0.22 0.22 0.22 0.21 0.20 0.18 0.19 0.20 0.20 0.19 0.18 0.19 0.18 0.16 0.14 0.14 0.14 0.14 0.14 0.15 0.15 0.16 0.16 0.16 0.16 0.17 0.18 0.19 0.18 0.18 0.19 0.20 0.19 0.19 0.18 0.17 0.17 0.19 0.20 0.20 0.21 0.22 0.23 0.24 0.24 0.27 0.28
0.29 0.30 0.29 0.30 0.31 0.33 0.33 0.34 0.34 0.32 0.31 0.31 0.30 0.28 0.26 0.25 0.27 0.24 0.25 0.25 0.25 0.27 0.27 0.25 0.25 0.26 0.29 0.31 0.31 0.31 0.29 0.27 0.26 0.26 0.25 0.25 0.24 0.23 0.23 0.23 0.22 0.21 0.19 0.18 0.17 0.16 0.16 0.16 0.16 0.16 0.16 0.15 0.14 0.14 0.13 0.14 0.14 0.14 0.15 0.15 0.15 0.16 0.15 0.15 0.16 0.15 0.15 0.15 0.16 0.17 0.18 0.18 0.17 0.17 0.17 0.19 0.19 0.20 0.22 0.21 0.21 0.23 0.24 0.25 0.26
0.28 0.30 0.30 0.30 0.31 0.31 0.34 0.36 0.35 0.36 0.34 0.33 0.30 0.28 0.28 0.27 0.25 0.24 0.27 0.26 0.28 0.28 0.28 0.26 0.25 0.25 0.27 0.29 0.30 0.30 0.29 0.27 0.25 0.24 0.23 0.23 0.22 0.21 0.21 0.21 0.20 0.19 0.17 0.15 0.14 0.14 0.14 0.14 0.15 0.15 0.15 0.15 0.15 0.15 0.14 0.14 0.15 0.14 0.15 0.15 0.14 0.13 0.14 0.14 0.15 0.15 0.15 0.16 0.16 0.16 0.15 0.15 0.15 0.14 0.15 0.16 0.17 0.18 0.21 0.21 0.22 0.23 0.23 0.24 0.27
0.27 0.28 0.29 0.30 0.30 0.31 0.31 0.33 0.33 0.33 0.32 0.32 0.32 0.31 0.28 0.23 0.22 0.24 0.25 0.26 0.27 0.27 0.25 0.25 0.25 0.25 0.26 0.26 0.27 0.26 0.25 0.23 0.22 0.22 0.21 0.20 0.19 0.19 0.18 0.17 0.17 0.16 0.15 0.14 0.13 0.13 0.13 0.13 0.13 0.14 0.14 0.15 0.15 0.15 0.15 0.15 0.14 0.15 0.15 0.14 0.13 0.14 0.14 0.14 0.14 0.15 0.15 0.15 0.15 0.14 0.14 0.14 0.13 0.13 0.13 0.14 0.15 0.17 0.19 0.19 0.20 0.22 0.24 0.25 0.26
0.26 0.27 0.28 0.30 0.31 0.31 0.31 0.32 0.31 0.31 0.31 0.32 0.31 0.29 0.25 0.24 0.24 0.24 0.26 0.26 0.27 0.27 0.26 0.25 0.25 0.24 0.24 0.24 0.25 0.24 0.22 0.20 0.19 0.18 0.17 0.17 0.16 0.16 0.15 0.15 0.14 0.13 0.13 0.12 0.12 0.12 0.12 0.13 0.12 0.13 0.14 0.14 0.13 0.13 0.13 0.14 0.15 0.15 0.15 0.14 0.15 0.15 0.14 0.15 0.15 0.14 0.14 0.15 0.15 0.15 0.15 0.14 0.14 0.13 0.12 0.13 0.15 0.17 0.17 0.19 0.20 0.22 0.23 0.25 0.26